[[{"header":{"parameterUnit":"m.s-1","parameterCategory":1,"la1":30.2991,"la2":30.254,"lo1":-89.0895,"lo2":-89.0444,"dy":0.0017,"dx":0.0017,"nx":28,"ny":28,"refTime":"2024-10-01T03:00:00:Z","depth":0,"parameterNumber":2,"parameterNumberName":"U-component_of_WINDS"},"data":[0,0,0,0,0,0,0,0,0,0,0,0,0,0,0,0,0,0,0,0,0,0,0,0,0,0,0,0,0,0,0,0,0,0,0,0,0,0,0,0,0,0,0,0,0,0,0,0,0,0,0,0,0,0,0,0,0,0,0.0777,0.0778,0,0.0906,0.0908,0.0909,0.0945,0.0944,0.0944,0.0943,0.108,0.1084,0.1088,0,0,0,0,0,0,0,0,0,0,0,0,0,0.0566,0.057,0.0777,0.0778,0.078,0.0906,0.0908,0.091,0.0945,0.0944,0.0944,0.0943,0.1078,0.1083,0.1089,0,0,0,0,0,0,0,0,0,0,0,0,0,0.0673,0.0571,0.0776,0.0813,0.0817,0.0906,0.0908,0.091,0.0946,0.0944,0.0943,0.0942,0.1077,0.1083,0.1089,0.1152,0,0,0.1109,0.1112,0,0,0,0,0,0,0,0,0.0667,0.0681,0.0806,0.0811,0.0816,0.0908,0.0884,0.0991,0.0946,0.0897,0.0943,0.0942,0.1024,0.1035,0.1062,0.1158,0.1164,0.111,0.1114,0.1116,0.1118,0,0,0,0,0,0,0,0.066,0.0675,0.0828,0.0808,0.0814,0.0825,0.0839,0.0905,0.0965,0.0901,0.0904,0.0919,0.1026,0.1055,0.1065,0.1166,0.111,0.1115,0.1119,0.1122,0.1326,0.1327,0,0,0,0,0,0,0.0645,0.0669,0.0824,0.0832,0.0737,0.0829,0.0845,0.088,0.0965,0.0976,0.092,0.092,0.1045,0.1057,0.107,0.1152,0.1116,0.1123,0.1126,0.1324,0.1326,0.1328,0,0,0,0,0,0,0.064,0.0659,0.0819,0.0751,0.0773,0.0834,0.0873,0.0883,0.0912,0.0978,0.099,0.0937,0.1044,0.1061,0.1132,0.1157,0.1125,0.1131,0.1323,0.1325,0.1327,0.1314,0,0,0,0,0,0,0.0634,0.0657,0.0679,0.0752,0.0776,0.0877,0.0875,0.0886,0.0922,0.0924,0.0998,0.101,0.1045,0.1122,0.1139,0.1165,0.1136,0.1321,0.1324,0.1326,0.1313,0.1316,0.1318,0,0,0,0,0,0.0627,0.0671,0.068,0.0699,0.0806,0.0878,0.0892,0.0931,0.0924,0.0949,0.0993,0.1007,0.1151,0.1129,0.1148,0.1177,0.1319,0.1323,0.1326,0.1311,0.1315,0.1318,0,0,0,0,0,0,0.06,0.0681,0.0692,0.076,0.0812,0.0884,0.0916,0.0933,0.0988,0.0987,0.1034,0.1051,0.1119,0.1155,0.1129,0.1245,0.1236,0.1243,0.1218,0.1222,0.1225,0.1216,0.1142,0,0,0,0,0,0.0602,0.0653,0.0721,0.0775,0.08,0.0854,0.0886,0.0912,0.0968,0.099,0.1038,0.1093,0.1152,0.1189,0.1246,0.1318,0.1337,0.1348,0.135,0.1352,0.1359,0.1403,0.141,0.1339,0.1339,0.1339,0,0,0.0607,0.0657,0.0686,0.0771,0.0814,0.0868,0.0872,0.0927,0.0969,0.0999,0.1069,0.1107,0.1172,0.1245,0.1279,0.1277,0.1383,0.1357,0.1358,0.1363,0.1407,0.1414,0.142,0.1341,0.1341,0.1341,0,0,0.0644,0.0686,0.0737,0.078,0.0845,0.0881,0.0893,0.0963,0.0989,0.1061,0.1086,0.1136,0.1234,0.1281,0.1317,0.1375,0.1392,0.1392,0.1407,0.145,0.1456,0.1461,0.1484,0.1492,0.1398,0.1398,0.1398,0,0.0642,0.0722,0.0761,0.0816,0.0854,0.0884,0.0938,0.0978,0.1059,0.1086,0.1082,0.1208,0.1253,0.1339,0.1353,0.1381,0.1399,0.1384,0.1451,0.1457,0.1463,0.1486,0.1494,0.1398,0.1398,0.1398,0.1398,0,0.0718,0.0774,0.0808,0.0885,0.0926,0.098,0.103,0.1068,0.1091,0.1128,0.1202,0.1258,0.1329,0.1351,0.1373,0.1441,0.1438,0.1442,0.1435,0.1469,0.1491,0.15,0.1397,0.1397,0.1397,0.1397,0,0,0.0741,0.084,0.0852,0.0889,0.0964,0.1009,0.1067,0.1135,0.1168,0.1223,0.1274,0.1358,0.1364,0.1405,0.1433,0.147,0.1517,0.1471,0.1473,0.1479,0.1599,0.1596,0.1606,0.1528,0.153,0.1531,0.1594,0,0.0789,0.089,0.0928,0.1013,0.1066,0.1097,0.1148,0.1201,0.1238,0.1291,0.1332,0.1392,0.1393,0.1418,0.1457,0.1503,0.1542,0.1499,0.1579,0.1581,0.1563,0.1617,0.1614,0.1671,0.1603,0.1605,0.1606,0,0.0857,0.0914,0.1003,0.1075,0.1099,0.1143,0.1211,0.126,0.1322,0.1347,0.1394,0.1421,0.1485,0.1473,0.1564,0.1534,0.157,0.1598,0.1601,0.1611,0.1596,0.1631,0.1689,0.1699,0.1619,0.1618,0.1617,0,0.0868,0.0966,0.1033,0.1063,0.1148,0.1179,0.1216,0.1277,0.1317,0.1377,0.1404,0.147,0.1507,0.1559,0.1604,0.1591,0.1693,0.1683,0.1717,0.1716,0.1738,0.1736,0.1805,0.1757,0.1757,0.1757,0.1757,0,0.0918,0.0972,0.1039,0.1081,0.1144,0.1189,0.125,0.129,0.1344,0.1396,0.1427,0.1475,0.1531,0.1587,0.1623,0.1695,0.1711,0.1734,0.1744,0.1733,0.173,0.1757,0.1755,0.1759,0.1759,0.1758,0.1758,0,0.094,0.0987,0.1063,0.1137,0.1158,0.1201,0.1266,0.1309,0.1348,0.1414,0.1432,0.1494,0.1562,0.1612,0.17,0.1724,0.1802,0.181,0.1781,0.1786,0.1818,0.1815,0.1908,0.1924,0.1863,0.1864,0.1864,0,0.0969,0.1012,0.1092,0.1128,0.1165,0.1223,0.1264,0.1311,0.1353,0.143,0.1464,0.1534,0.1593,0.1702,0.1756,0.1825,0.1836,0.1864,0.1847,0.1835,0.184,0.1837,0.1843,0.1867,0.1867,0.1868,0.1868,0,0.1018,0.104,0.1097,0.1163,0.1211,0.1266,0.1321,0.135,0.1408,0.1454,0.1524,0.1569,0.166,0.1731,0.1806,0.1847,0.1868,0.1873,0.1885,0.1875,0.1857,0.187,0.179,0.1871,0.187,0.187,0.187,0.187,0.1046,0.1087,0.115,0.1214,0.1261,0.1312,0.1357,0.1403,0.1461,0.1539,0.1563,0.1637,0.1702,0.1804,0.1846,0.1906,0.1906,0.1922,0.1927,0.1931,0.1931,0.1846,0.192,0.192,0.192,0.192,0.192,0,0.1098,0.1141,0.1199,0.1276,0.1327,0.1342,0.1405,0.1448,0.1511,0.157,0.1627,0.171,0.1779,0.184,0.1913,0.1949,0.1962,0.1967,0.1966,0.1976,0.1926,0.191,0.1957,0.1957,0.1957,0.1957,0.1956,0.1956,0.1131,0.1202,0.1232,0.1327,0.137,0.1441,0.1477,0.1526,0.1573,0.1663,0.1721,0.176,0.1821,0.1899,0.1964,0.1981,0.2007,0.2011,0.203,0.1983,0.1979,0.1975,0.1959,0.2016,0.2016,0.2075,0.2075,0.2076]},{"header":{"parameterUnit":"m.s-1","parameterCategory":1,"la1":30.2991,"la2":30.254,"lo1":-89.0895,"lo2":-89.0444,"dy":0.0017,"dx":0.0017,"nx":28,"ny":28,"refTime":"2024-10-01T03:00:00:Z","depth":0,"parameterNumber":3,"parameterNumberName":"V-component_of_WINDS"},"data":[0,0,0,0,0,0,0,0,0,0,0,0,0,0,0,0,0,0,0,0,0,0,0,0,0,0,0,0,0,0,0,0,0,0,0,0,0,0,0,0,0,0,0,0,0,0,0,0,0,0,0,0,0,0,0,0,0,0,-1.4752,-1.4751,0,-1.4579,-1.4577,-1.4575,-1.4613,-1.4616,-1.462,-1.4623,-1.4437,-1.4429,-1.4421,0,0,0,0,0,0,0,0,0,0,0,0,0,-1.5111,-1.5105,-1.4753,-1.475,-1.4748,-1.4579,-1.4577,-1.4574,-1.4613,-1.4617,-1.4621,-1.4624,-1.4439,-1.443,-1.442,0,0,0,0,0,0,0,0,0,0,0,0,0,-1.4948,-1.5102,-1.4753,-1.4747,-1.4745,-1.458,-1.4577,-1.4574,-1.4612,-1.4617,-1.4622,-1.4626,-1.4443,-1.4431,-1.4419,-1.4246,0,0,-1.4382,-1.4377,0,0,0,0,0,0,0,0,-1.4957,-1.4935,-1.475,-1.4747,-1.4745,-1.4623,-1.4635,-1.4464,-1.461,-1.4662,-1.4623,-1.4629,-1.4494,-1.4478,-1.4435,-1.4238,-1.423,-1.4381,-1.4374,-1.4369,-1.4365,0,0,0,0,0,0,0,-1.4969,-1.4943,-1.4684,-1.4747,-1.4744,-1.4751,-1.4734,-1.4603,-1.4552,-1.4658,-1.466,-1.464,-1.4494,-1.4446,-1.4431,-1.4227,-1.4382,-1.4371,-1.4364,-1.4359,-1.3881,-1.3876,0,0,0,0,0,0,-1.4983,-1.4952,-1.4689,-1.4679,-1.4866,-1.4741,-1.4721,-1.4657,-1.4554,-1.4543,-1.4636,-1.4642,-1.4464,-1.4445,-1.4424,-1.4216,-1.4369,-1.4358,-1.4351,-1.3887,-1.388,-1.3874,0,0,0,0,0,0,-1.4991,-1.496,-1.4696,-1.4816,-1.4783,-1.473,-1.4657,-1.4651,-1.4604,-1.4537,-1.4528,-1.4597,-1.4467,-1.4441,-1.4291,-1.421,-1.4352,-1.4341,-1.3893,-1.3885,-1.3877,-1.3797,0,0,0,0,0,0,-1.5001,-1.4962,-1.4897,-1.4814,-1.4776,-1.4567,-1.4652,-1.4644,-1.4584,-1.459,-1.4498,-1.4488,-1.4469,-1.4309,-1.4279,-1.4196,-1.4332,-1.39,-1.3889,-1.388,-1.3807,-1.3787,-1.3771,0,0,0,0,0,-1.5014,-1.4879,-1.4894,-1.4862,-1.4694,-1.4563,-1.4541,-1.4525,-1.4577,-1.451,-1.4468,-1.4491,-1.4224,-1.4293,-1.426,-1.4172,-1.3905,-1.3892,-1.388,-1.3815,-1.3791,-1.3771,0,0,0,0,0,0,-1.495,-1.4868,-1.4883,-1.4718,-1.4648,-1.457,-1.4485,-1.45,-1.441,-1.442,-1.4402,-1.438,-1.4228,-1.4185,-1.4264,-1.4,-1.4072,-1.4052,-1.4033,-1.401,-1.3992,-1.4005,-1.4322,0,0,0,0,0,-1.4918,-1.482,-1.4753,-1.4614,-1.4578,-1.4538,-1.448,-1.4474,-1.4399,-1.4368,-1.4315,-1.4239,-1.4139,-1.4072,-1.3976,-1.3802,-1.3782,-1.3725,-1.3707,-1.3692,-1.3675,-1.358,-1.3554,-1.3833,-1.3834,-1.3834,0,0,-1.4848,-1.4791,-1.473,-1.46,-1.4544,-1.4442,-1.4512,-1.44,-1.4323,-1.435,-1.4206,-1.4165,-1.4079,-1.3917,-1.3843,-1.3876,-1.3594,-1.3677,-1.3666,-1.3656,-1.3565,-1.3539,-1.3515,-1.3825,-1.3827,-1.3828,0,0,-1.4669,-1.4616,-1.4495,-1.444,-1.4357,-1.4331,-1.4302,-1.4222,-1.4197,-1.4053,-1.4072,-1.398,-1.3807,-1.3745,-1.3691,-1.3493,-1.351,-1.3462,-1.3366,-1.3274,-1.3252,-1.3233,-1.3161,-1.3136,-1.3445,-1.3445,-1.3445,0,-1.4591,-1.444,-1.443,-1.4318,-1.426,-1.4284,-1.416,-1.4106,-1.3994,-1.3953,-1.3993,-1.3779,-1.3722,-1.3546,-1.3499,-1.3454,-1.342,-1.3471,-1.3257,-1.3237,-1.3218,-1.315,-1.3123,-1.344,-1.344,-1.3441,-1.3441,0,-1.4349,-1.4244,-1.4156,-1.4052,-1.3984,-1.3866,-1.3837,-1.377,-1.3771,-1.3741,-1.3594,-1.3529,-1.3421,-1.3379,-1.3377,-1.3202,-1.3226,-1.3262,-1.3333,-1.3187,-1.3122,-1.3096,-1.3432,-1.3434,-1.3436,-1.3437,0,0,-1.4121,-1.4016,-1.3984,-1.3937,-1.3849,-1.3767,-1.365,-1.3548,-1.349,-1.3413,-1.3314,-1.3169,-1.3203,-1.3142,-1.3134,-1.3053,-1.29,-1.3099,-1.3096,-1.3063,-1.2704,-1.2677,-1.2647,-1.2913,-1.2908,-1.2904,-1.2711,0,-1.3933,-1.3731,-1.372,-1.3536,-1.3438,-1.3462,-1.336,-1.3294,-1.3264,-1.3176,-1.3142,-1.3039,-1.3091,-1.3055,-1.2977,-1.2936,-1.2828,-1.295,-1.2818,-1.2814,-1.2838,-1.2613,-1.2583,-1.2404,-1.2686,-1.2682,-1.2678,0,-1.3685,-1.3605,-1.3412,-1.334,-1.3298,-1.3208,-1.3114,-1.303,-1.2956,-1.2939,-1.2873,-1.2878,-1.2757,-1.2835,-1.2669,-1.2752,-1.2698,-1.267,-1.2663,-1.2648,-1.2736,-1.2591,-1.2347,-1.232,-1.2639,-1.2642,-1.2645,0,-1.3537,-1.3381,-1.3245,-1.3205,-1.3117,-1.3053,-1.3013,-1.2945,-1.2885,-1.2802,-1.2763,-1.2666,-1.2612,-1.2537,-1.2515,-1.2574,-1.2349,-1.2425,-1.2331,-1.2331,-1.228,-1.2283,-1.2022,-1.2248,-1.2248,-1.2249,-1.2249,0,-1.3327,-1.3208,-1.3178,-1.3094,-1.2961,-1.2951,-1.2819,-1.2783,-1.2722,-1.2631,-1.2645,-1.2558,-1.2536,-1.2445,-1.2427,-1.2291,-1.2267,-1.2249,-1.2246,-1.2247,-1.2249,-1.221,-1.2221,-1.2242,-1.2243,-1.2245,-1.2246,0,-1.3138,-1.3113,-1.2967,-1.2899,-1.2879,-1.2783,-1.2724,-1.2642,-1.2617,-1.2501,-1.2473,-1.243,-1.2324,-1.2296,-1.2168,-1.2156,-1.1997,-1.2005,-1.2022,-1.2022,-1.1929,-1.1938,-1.1632,-1.1591,-1.1845,-1.1843,-1.1841,0,-1.3004,-1.2914,-1.2837,-1.2778,-1.2737,-1.2642,-1.2582,-1.2569,-1.2505,-1.2416,-1.2345,-1.2242,-1.2159,-1.1988,-1.1944,-1.1847,-1.1852,-1.1752,-1.1837,-1.1842,-1.1849,-1.1855,-1.1845,-1.1735,-1.1732,-1.173,-1.1728,0,-1.277,-1.2763,-1.2677,-1.2588,-1.2517,-1.2444,-1.2375,-1.2326,-1.2303,-1.2231,-1.2125,-1.206,-1.1932,-1.1829,-1.1732,-1.1689,-1.1703,-1.1703,-1.1676,-1.1675,-1.1688,-1.1679,-1.1977,-1.1709,-1.1711,-1.1712,-1.1713,-1.1714,-1.2603,-1.2524,-1.2459,-1.2363,-1.2311,-1.2247,-1.2169,-1.2134,-1.2046,-1.1943,-1.1941,-1.1825,-1.1755,-1.1626,-1.1579,-1.1487,-1.1517,-1.1477,-1.1467,-1.1457,-1.1449,-1.1705,-1.1469,-1.147,-1.147,-1.1471,-1.1471,0,-1.2368,-1.2329,-1.2241,-1.2147,-1.2071,-1.2097,-1.2023,-1.1957,-1.1856,-1.1791,-1.1711,-1.1589,-1.149,-1.144,-1.1342,-1.1278,-1.1283,-1.1253,-1.1256,-1.1246,-1.1428,-1.1461,-1.1251,-1.1251,-1.1251,-1.1251,-1.1251,-1.1251,-1.2237,-1.2106,-1.2092,-1.1935,-1.1895,-1.1785,-1.174,-1.1681,-1.163,-1.1495,-1.1414,-1.1384,-1.1324,-1.1223,-1.1133,-1.1121,-1.1083,-1.1049,-1.104,-1.1211,-1.1233,-1.1254,-1.1285,-1.1041,-1.1041,-1.0865,-1.0864,-1.0863]}]]